Artesia, NM

8:53 PM MST on February 24, 2017 (GMT -0700)
Artesia Municipal

Weather History for KATS - June, 2013

Change the Weather History Date:

Saturday, June 29, 2013

  Actual Average Record
Temperature  
Mean Temperature 88 °F -  
Max Temperature 102 °F 94 °F 109 °F (1957)
Min Temperature 73 °F 63 °F 52 °F (1985)
Cooling Degree Days 22    
Growing Degree Days 38 (Base 50)    
Moisture  
Dew Point 45 °F    
Average Humidity 24    
Maximum Humidity 39    
Minimum Humidity 11    
Precipitation  
Precipitation 0.00 in - - ()
Sea Level Pressure  
Sea Level Pressure 30.03 in    
Wind  
Wind Speed 10 mph (NNW)    
Max Wind Speed 30 mph    
Max Gust Speed 41 mph    
Visibility 10 miles    
Events      
Averages and records for this station are not official NWS values.
T = Trace of Precipitation, MM = Missing Value Source: NWS Daily Summary

Daily Weather History Graph

Daily Weather History Graph

Search for Another Location

Airport or City:

Trip Planner

Search our weather history database for the weather conditions in past years. The results will help you decide how hot, cold, wet, or windy it might be!

Date:

Astronomy

Jun. 29, 2013 Rise Set
Actual Time 5:52 AM MDT 8:10 PM MDT
Civil Twilight 5:24 AM MDT 8:38 PM MDT
Nautical Twilight 4:48 AM MDT 9:13 PM MDT
Astronomical Twilight 4:10 AM MDT 9:51 PM MDT
Moon 12:02 AM MDT (6/29) 12:42 PM MDT (6/29)
Length of Visible Light 15h 14m
Length of Day
14h 17m
Waning Gibbous, 55% of the Moon is Illuminated
Jun 29
Waning Gibbous
Jun 29
Last Quarter
Jul 8
New
Jul 15
First Quarter
Jul 22
Full

Hourly Weather History & Observations

Time (MDT) Temp. Heat Index Dew Point Humidity Pressure Visibility Wind Dir Wind Speed Gust Speed Precip Events Conditions
12:15 AM 77.0 °F - 42.8 °F 29% 30.07 in 10.0 mi NNW 10.4 mph - N/A   Clear
12:35 AM 77.0 °F - 48.2 °F 36% 30.06 in 10.0 mi NNE 5.8 mph - N/A   Clear
12:55 AM 77.0 °F - 48.2 °F 36% 30.06 in 10.0 mi North 9.2 mph - N/A   Clear
1:15 AM 77.0 °F - 46.4 °F 34% 30.06 in 10.0 mi North 8.1 mph - N/A   Clear
1:35 AM 77.0 °F - 46.4 °F 34% 30.07 in 10.0 mi North 11.5 mph - N/A   Clear
1:55 AM 80.6 °F - 48.2 °F 32% 30.06 in 10.0 mi NNE 12.7 mph - N/A   Clear
2:15 AM 82.4 °F - 46.4 °F 28% 30.06 in 10.0 mi NE 10.4 mph - N/A   Clear
2:35 AM 80.6 °F - 46.4 °F 30% 30.06 in 10.0 mi NNE 9.2 mph - N/A   Clear
2:55 AM 78.8 °F - 46.4 °F 32% 30.05 in 10.0 mi NNE 5.8 mph - N/A   Clear
3:15 AM 77.0 °F - 46.4 °F 34% 30.05 in 10.0 mi NNE 6.9 mph - N/A   Clear
3:35 AM 77.0 °F - 46.4 °F 34% 30.05 in 10.0 mi NNW 9.2 mph - N/A   Clear
3:55 AM 75.2 °F - 46.4 °F 36% 30.06 in 10.0 mi NNW 6.9 mph - N/A   Clear
4:15 AM 75.2 °F - 46.4 °F 36% 30.06 in 10.0 mi NW 8.1 mph - N/A   Clear
4:35 AM 75.2 °F - 46.4 °F 36% 30.07 in 10.0 mi WNW 10.4 mph - N/A   Clear
4:55 AM 75.2 °F - 46.4 °F 36% 30.07 in 10.0 mi WNW 8.1 mph - N/A   Clear
5:15 AM 75.2 °F - 44.6 °F 34% 30.07 in 10.0 mi WNW 9.2 mph - N/A   Clear
5:35 AM 75.2 °F - 44.6 °F 34% 30.07 in 10.0 mi NW 8.1 mph - N/A   Clear
5:55 AM 73.4 °F - 44.6 °F 36% 30.07 in 10.0 mi NW 9.2 mph - N/A   Clear
6:15 AM 73.4 °F - 44.6 °F 36% 30.08 in 10.0 mi WNW 9.2 mph - N/A   Clear
6:35 AM 75.2 °F - 42.8 °F 31% 30.08 in 10.0 mi WNW 10.4 mph - N/A   Clear
6:55 AM 75.2 °F - 42.8 °F 31% 30.08 in 10.0 mi WNW 10.4 mph - N/A   Clear
7:15 AM 77.0 °F - 42.8 °F 29% 30.09 in 10.0 mi NW 5.8 mph - N/A   Clear
7:35 AM 80.6 °F - 42.8 °F 26% 30.09 in 10.0 mi NW 6.9 mph - N/A   Clear
7:55 AM 82.4 °F - 44.6 °F 26% 30.10 in 10.0 mi North 5.8 mph - N/A   Clear
8:15 AM 82.4 °F - 46.4 °F 28% 30.09 in 10.0 mi NNW 6.9 mph - N/A   Clear
8:35 AM 84.2 °F - 48.2 °F 29% 30.09 in 10.0 mi NNW 6.9 mph - N/A   Clear
8:55 AM 86.0 °F - 48.2 °F 27% 30.09 in 10.0 mi North 11.5 mph - N/A   Clear
9:15 AM 86.0 °F - 48.2 °F 27% 30.09 in 10.0 mi North 12.7 mph - N/A   Clear
9:35 AM 89.6 °F - 48.2 °F 24% 30.08 in 10.0 mi North 13.8 mph - N/A   Clear
9:55 AM 89.6 °F - 50.0 °F 26% 30.08 in 10.0 mi NNE 13.8 mph 18.4 mph N/A   Clear
10:15 AM 89.6 °F - 50.0 °F 26% 30.08 in 10.0 mi North 13.8 mph - N/A   Clear
10:35 AM 89.6 °F - 50.0 °F 26% 30.09 in 10.0 mi NNE 9.2 mph 16.1 mph N/A   Clear
10:55 AM 91.4 °F - 50.0 °F 24% 30.09 in 10.0 mi NNE 10.4 mph 18.4 mph N/A   Clear
11:15 AM 91.4 °F - 50.0 °F 24% 30.08 in 10.0 mi NNE 9.2 mph - N/A   Clear
11:35 AM 93.2 °F - 50.0 °F 23% 30.07 in 10.0 mi NE 11.5 mph - N/A   Clear
11:55 AM 95.0 °F - 48.2 °F 20% 30.06 in 10.0 mi NNE 10.4 mph - N/A   Clear
12:15 PM 95.0 °F - 48.2 °F 20% 30.06 in 10.0 mi ENE 10.4 mph - N/A   Clear
12:35 PM 96.8 °F - 48.2 °F 19% 30.05 in 10.0 mi ESE 8.1 mph - N/A   Clear
12:55 PM 96.8 °F - 48.2 °F 19% 30.04 in 10.0 mi East 5.8 mph - N/A   Clear
1:15 PM 98.6 °F - 46.4 °F 17% 30.03 in 10.0 mi SE 4.6 mph - N/A   Clear
1:35 PM 98.6 °F - 46.4 °F 17% 30.02 in 10.0 mi North 5.8 mph 17.3 mph N/A   Clear
1:55 PM 100.4 °F - 46.4 °F 16% 30.01 in 10.0 mi SSW 6.9 mph - N/A   Clear
2:15 PM 100.4 °F - 44.6 °F 15% 30.00 in 10.0 mi ENE 6.9 mph - N/A   Clear
2:35 PM 100.4 °F - 39.2 °F 12% 29.99 in 10.0 mi NNE 3.5 mph - N/A   Clear
2:55 PM 102.2 °F - 39.2 °F 11% 29.99 in 10.0 mi West 4.6 mph - N/A   Clear
3:15 PM 102.2 °F - 41.0 °F 12% 29.98 in 10.0 mi NW 17.3 mph 26.5 mph N/A   Clear
3:35 PM 100.4 °F - 41.0 °F 13% 29.98 in 10.0 mi WSW 12.7 mph 23.0 mph N/A   Clear
3:55 PM 102.2 °F - 41.0 °F 12% 29.97 in 10.0 mi NNW 11.5 mph 23.0 mph N/A   Clear
4:15 PM 100.4 °F - 41.0 °F 13% 29.97 in 10.0 mi West 9.2 mph 23.0 mph N/A   Clear
4:35 PM 100.4 °F - 41.0 °F 13% 29.95 in 10.0 mi WNW 11.5 mph 17.3 mph N/A   Clear
4:55 PM 100.4 °F - 41.0 °F 13% 29.94 in 10.0 mi WSW 10.4 mph 19.6 mph N/A   Clear
5:15 PM 100.4 °F - 41.0 °F 13% 29.94 in 10.0 mi SW 6.9 mph - N/A   Clear
5:35 PM 100.4 °F - 39.2 °F 12% 29.94 in 10.0 mi SW 6.9 mph - N/A   Clear
5:55 PM 102.2 °F - 39.2 °F 11% 29.93 in 10.0 mi SSW 15.0 mph 20.7 mph N/A   Clear
6:15 PM 100.4 °F - 39.2 °F 12% 29.93 in 10.0 mi SW 8.1 mph 19.6 mph N/A   Clear
6:35 PM 93.2 °F - 46.4 °F 20% 29.94 in 1.8 mi South 27.6 mph 39.1 mph N/A   Haze
6:55 PM 91.4 °F - 46.4 °F 21% 29.94 in 10.0 mi South 21.9 mph 33.4 mph N/A   Clear
7:15 PM 91.4 °F - 46.4 °F 21% 29.94 in 10.0 mi South 19.6 mph 28.8 mph N/A   Clear
7:35 PM 91.4 °F - 46.4 °F 21% 29.93 in 10.0 mi South 15.0 mph 20.7 mph N/A   Clear
7:55 PM 91.4 °F - 44.6 °F 20% 29.93 in 10.0 mi South 13.8 mph - N/A   Clear
8:15 PM 89.6 °F - 44.6 °F 21% 29.94 in 10.0 mi South 9.2 mph - N/A   Clear
8:35 PM 89.6 °F - 44.6 °F 21% 29.95 in 10.0 mi SSW 4.6 mph - N/A   Clear
8:55 PM 87.8 °F - 42.8 °F 21% 29.96 in 10.0 mi WSW 5.8 mph - N/A   Clear
9:15 PM 87.8 °F - 42.8 °F 21% 29.97 in 10.0 mi NW 9.2 mph - N/A   Clear
9:35 PM 87.8 °F - 41.0 °F 19% 29.97 in 10.0 mi WSW 5.8 mph - N/A   Clear
9:55 PM 86.0 °F - 41.0 °F 20% 29.98 in 10.0 mi SW 4.6 mph - N/A   Clear
10:15 PM 86.0 °F - 41.0 °F 20% 30.00 in 10.0 mi WNW 9.2 mph - N/A   Clear
10:35 PM 89.6 °F - 46.4 °F 22% 30.03 in 3.0 mi North 29.9 mph 35.7 mph N/A   Haze
10:55 PM 86.0 °F - 48.2 °F 27% 30.04 in 4.0 mi North 29.9 mph 41.4 mph N/A   Haze
11:15 PM 86.0 °F - 50.0 °F 29% 30.06 in 8.0 mi NE 21.9 mph - N/A   Clear
11:35 PM 84.2 °F - 50.0 °F 30% 30.07 in 9.0 mi East 15.0 mph 24.2 mph N/A   Clear
11:55 PM 80.6 °F 80.3 °F 53.6 °F 39% 30.09 in 10.0 mi East 11.5 mph 16.1 mph N/A   Clear